{"data":{"norad_id":51650,"intl_designator":"2022-012AE","name":"ONEWEB-0463","alt_names":[],"object_type":"PAYLOAD","status":"ACTIVE","operator":null,"country":"UK","launch_date":"2022-02-10","launch_site_code":"FRGUI","launch_vehicle":null,"mission":null,"orbit_class":"UNKNOWN","rcs_meters":null,"size_class":null,"mass_kg":null,"dimensions":null,"purposes":["comms"],"wikipedia_slug":null,"has_3d_model":false,"image_url":null,"decayed_at":null,"tle_current":{"epoch":"2026-05-25T03:01:21.335232Z","epoch_age_seconds":58053,"freshness":"FRESH","line1":"1 51650U 22012AE  26145.12594138  .00000019  00000+0  17048-4 0  9998","line2":"2 51650  87.9152  10.4661 0001788  89.0980 271.0357 13.17649515210636","mean_motion":13.17649515,"eccentricity":0.0001788,"inclination_deg":87.9152,"raan_deg":10.4661,"arg_perigee_deg":89.098,"mean_anomaly_deg":271.0357,"bstar":1.7048e-5,"rev_number":21063,"period_min":109.28551057069,"perigee_km":1192.3574404308,"apogee_km":1195.0651333782,"semimajor_km":7571.8482869045,"source":"CELESTRAK","updated_at":"2026-05-25T13:38:22.582300Z"}}}